Location: Lane
(33.5226°N, 79.8788°W)
Time: 11:14:46
(UTC+00:00)

Altair - Pass Details

Date: 08 October 2022
Orbit: 1501 x 1682 km, 47.2° (Epoch: 30 November)

Event Time Altitude Azimuth Distance (km) Brightness Sun altitude
Rises 06:14:00 0° 192° (SSW) 4,653 - -58.3°
Reaches altitude 10° 06:17:35 10° 181° (S) 3,694 - -57.9°
Maximum altitude 06:25:05 28° 126° (SE) 2,616 - -57.0°
Exits shadow 06:30:41 16° 82° (E) 3,321 9.4 -56.3°
Drops below altitude 10° 06:32:47 10° 73° (ENE) 3,817 9.9 -56.0°
Sets 06:36:30 0° 62° (ENE) 4,834 10.6 -55.5°
